Flag for Reunion (French) Weather past 2 weeks in Saint-Pierre, Reunion (French)

Now
82 °F

Passing clouds.


Feels Like: 86 °F
Forecast: 73 / 82 °F
Wind: 10 mph from Southeast

Location: Saint Airport-Pierre

Current Time: Feb 28, 2015 at 11:10:18 AM

Latest Report: Feb 28, 2015 at 10:30 AM


Visibility: N/A

Pressure: 29.80 "Hg

Humidity: 66%

Dew point: 70 °F

Location of Saint-PierreLocation

Historic Weather in Saint-Pierre — Graph

°F

Saint-Pierre temperature yesterday

Maximum temperature yesterday: 86 °F (at 11:30 AM)
Minimum temperature yesterday: 75 °F (at 3:30 AM)
Average temperature yesterday: 81 °F

Past Weeks' High & Low Weather Summary

 TemperatureHumidityPressure
High88 °F (Feb 18, 1:30 PM)94% (Feb 19, 2:30 PM)29.98 "Hg (Feb 19, 2:30 PM)
Low73 °F (Feb 14, 2:30 AM)51% (Feb 17, 8:00 AM)29.71 "Hg (Feb 20, 3:30 AM)
Average80 °F73%29.86 "Hg
* Reported Feb 13 10:00 AM — Feb 28 10:00 AM, Saint-Pierre, Weather by CustomWeather, © 2015

Note: Actual official high and low records may vary slightly from our data, if they occured in-between our weather recording intervals... More about our weather records

Advertising

Saint-Pierre weather history for previous 24 hours

 ConditionsComfort  
Time TempWeatherWind HumidityBarometerVisibility
10:00 AM
Sat, Feb 28
82 °FWarm.10 mph66%29.80 "HgN/A
9:30 AM82 °FWarm.9 mph70%29.83 "HgN/A
9:00 AM82 °FWarm.10 mph66%29.80 "HgN/A
8:30 AM82 °FWarm.5 mph58%29.80 "HgN/A
8:00 AM81 °FPassing clouds.6 mph58%29.80 "HgN/A
7:30 AM77 °FWarm.9 mph57%29.80 "HgN/A
7:00 AM75 °FMild.9 mph61%29.80 "HgN/A
6:30 AM73 °FMild.9 mph69%29.80 "HgN/A
6:00 AM73 °FMild.9 mph69%29.77 "HgN/A
5:30 AM73 °FPassing clouds.8 mph69%29.77 "HgN/A
5:00 AM73 °FPassing clouds.8 mph74%29.77 "HgN/A
4:30 AM73 °FPassing clouds.7 mph74%29.77 "HgN/A
4:00 AM75 °FMild.7 mph74%29.77 "HgN/A
3:30 AM75 °FPassing clouds.7 mph69%29.77 "HgN/A
3:00 AM75 °FPassing clouds.8 mph69%29.77 "HgN/A
2:30 AM75 °FPassing clouds.5 mph69%29.77 "HgN/A
2:00 AM75 °FPassing clouds.7 mph69%29.77 "HgN/A
1:30 AM77 °FPassing clouds.8 mph65%29.80 "HgN/A
1:00 AM77 °FPassing clouds.8 mph69%29.80 "HgN/A
12:30 AM77 °FPartly cloudy.6 mph74%29.80 "HgN/A
12:00 AM77 °FPartly cloudy.6 mph79%29.80 "HgN/A
11:30 PM
Fri, Feb 27
79 °FPassing clouds.6 mph79%29.80 "HgN/A
11:00 PM79 °FPassing clouds.7 mph84%29.80 "HgN/A
10:30 PM81 °FPassing clouds.9 mph74%29.80 "HgN/A
10:00 PM81 °FPassing clouds.14 mph79%29.80 "HgN/A
9:30 PM81 °FPartly cloudy.14 mph79%29.80 "HgN/A
9:00 PM81 °FPartly cloudy.13 mph79%29.80 "HgN/A
8:30 PM81 °FPartly cloudy.15 mph79%29.80 "HgN/A
8:00 PM81 °FPassing clouds.15 mph84%29.77 "HgN/A
7:30 PM81 °FPassing clouds.14 mph84%29.77 "HgN/A
7:00 PM81 °FPassing clouds.14 mph79%29.77 "HgN/A
6:30 PM81 °FPassing clouds.14 mph79%29.77 "HgN/A
6:00 PM82 °FPartly cloudy.16 mph79%29.74 "HgN/A
5:30 PM81 °FPartly sunny.17 mph84%29.74 "HgN/A
5:00 PM82 °FBroken clouds.16 mph79%29.74 "HgN/A
4:30 PM84 °FPassing clouds.16 mph74%29.74 "HgN/A
4:00 PM84 °FBroken clouds.16 mph74%29.74 "HgN/A
3:30 PM84 °FBroken clouds.17 mph74%29.74 "HgN/A
3:00 PM84 °FMore clouds than sun.18 mph74%29.74 "HgN/A
2:30 PM84 °FMostly cloudy.17 mph70%29.74 "HgN/A
2:00 PM86 °FBroken clouds.17 mph70%29.74 "HgN/A
1:30 PM86 °FScattered clouds.17 mph70%29.74 "HgN/A
1:00 PM86 °FScattered clouds.17 mph70%29.77 "HgN/A
12:30 PM86 °FPassing clouds.16 mph70%29.77 "HgN/A
12:00 PM86 °FPassing clouds.16 mph75%29.77 "HgN/A
11:30 AM86 °FBroken clouds.16 mph75%29.77 "HgN/A
11:00 AM84 °FPartly sunny.16 mph70%29.80 "HgN/A
Weather by CustomWeather, © 2015

See weather overviewHow to use our weather pages